Location: Bad Salzschlirf
(50.3750°N, 9.3000°E)
Time: 06:18:20
(UTC+01:00)

ISS - Pass Details

Date: 11 November 2018
Orbit: 402 x 408 km, 51.6° (Epoch: 17 November)

Event Time Altitude Azimuth Distance (km) Brightness Sun altitude
Exits shadow 06:41:17 - 266° (W) 1,518 -1.5 -8.0°
Reaches altitude 10° 06:41:28 10° 263° (W) 1,462 -1.6 -8.0°
Maximum altitude 06:43:45 18° 219° (SW) 1,082 -1.9 -7.6°
Drops below altitude 10° 06:46:03 10° 174° (S) 1,459 -0.7 -7.3°
Sets 06:48:33 0° 155° (SSE) 2,316 0.8 -6.9°
